Location: Chacón
(10.5789°N, 66.9317°W)
Time: 16:06:17
(UTC+00:00)

Cosmos 1727 Rocket - Pass Details

Date: 07 August 2024
Orbit: 960 x 997 km, 82.9° (Epoch: 08 September)

Event Time Altitude Azimuth Distance (km) Brightness Sun altitude
Rises 23:24:47 0° 33° (NNE) 3,644 6.9 -9.2°
Reaches altitude 10° 23:29:35 10° 66° (ENE) 2,692 5.9 -10.3°
Maximum altitude 23:31:17 11° 82° (E) 2,604 5.7 -10.7°
Enters shadow 23:31:48 11° 87° (E) 2,611 5.7 -10.8°
